Weather History for Venice, Italy

Change the Weather History Date:

Wednesday, February 19, 2014

  Actual Average Record
Temperature  
Mean Temperature 53 °F -  
Max Temperature 56 °F 51 °F 56 °F (2014)
Min Temperature 50 °F 37 °F 23 °F (2009)
Degree Days  
Heating Degree Days 12    
Growing Degree Days 3 (Base 50)    
Moisture  
Dew Point 51 °F    
Average Humidity 93    
Maximum Humidity 100    
Minimum Humidity 67    
Precipitation  
Precipitation 0.20 in 0.07 in - ()
Sea Level Pressure  
Sea Level Pressure 29.92 in    
Wind  
Wind Speed 5 mph ()    
Max Wind Speed 9 mph    
Max Gust Speed -    
Visibility 3.6 miles    
Events Rain    
Averages and records for this station are not official NWS values.
T = Trace of Precipitation, MM = Missing Value Source: Averaged Metar Reports

Daily Weather History Graph

Daily Weather History Graph

Search for Another Location

Airport:

Trip Planner

Search our weather history database for the weather conditions in past years. The results will help you decide how hot, cold, wet, or windy it might be!

Date:

Astronomy

Feb. 19, 2014 Rise Set
Actual Time 7:06 AM CET 5:43 PM CET
Civil Twilight 6:36 AM CET 6:13 PM CET
Nautical Twilight 6:01 AM CET 6:47 PM CET
Astronomical Twilight 5:27 AM CET 7:22 PM CET
Moon 10:35 PM CET 8:48 AM CET
Length of Visible Light 11h 37m
Length of Day
10h 36m
Waning Gibbous, 82% of the Moon is Illuminated
Feb 19
Waning Gibbous
Feb 22
Last Quarter
Mar 1
New
Mar 8
First Quarter
Mar 16
Full

Hourly Weather History & Observations

Time (CET) Temp. Dew Point Humidity Pressure Visibility Wind Dir Wind Speed Gust Speed Precip Events Conditions
12:20 AM 53.6 °F 44.6 °F 72% 30.06 in 6.2 mi NE 9.2 mph - N/A   Mostly Cloudy
12:50 AM 53.6 °F 44.6 °F 72% 30.06 in 6.2 mi NE 9.2 mph - N/A   Mostly Cloudy
1:00 AM 53 °F 45 °F 67% 30.07 in 12 mi NE 8.1 mph - -   Mostly Cloudy
1:20 AM 53.6 °F 44.6 °F 72% 30.06 in 6.2 mi NNE 5.8 mph - N/A   Mostly Cloudy
1:50 AM 53.6 °F 44.6 °F 72% 30.06 in 6.2 mi NNE 6.9 mph - N/A Rain Light Rain
2:20 AM 51.8 °F 44.6 °F 76% 30.06 in 6.2 mi NNE 8.1 mph - N/A Rain Light Rain
2:50 AM 51.8 °F 46.4 °F 82% 30.04 in 5.6 mi NNE 9.2 mph - N/A Rain Light Rain
3:20 AM 50.0 °F 46.4 °F 87% 30.01 in 6.2 mi NNE 6.9 mph - N/A Rain Light Rain
3:50 AM 50.0 °F 46.4 °F 87% 30.01 in 6.2 mi NNE 8.1 mph - N/A Rain Light Rain
4:00 AM 51 °F 47 °F 82% 30.04 in 9 mi NNE 6.9 mph - - Rain Light Rain
4:20 AM 50.0 °F 48.2 °F 94% 30.01 in 6.2 mi NNE 8.1 mph - N/A Rain Light Rain
4:50 AM 50.0 °F 48.2 °F 94% 29.98 in 5.6 mi NNE 9.2 mph - N/A Rain Light Rain
5:20 AM 50.0 °F 50.0 °F 100% 29.98 in 3.1 mi NNE 6.9 mph - N/A Rain Light Rain
5:50 AM 50.0 °F 50.0 °F 100% 29.98 in 1.9 mi NNE 6.9 mph - N/A Rain Light Rain
6:20 AM 50.0 °F 50.0 °F 100% 29.98 in 0.8 mi Variable 3.5 mph - N/A Rain Light Rain
6:50 AM 51.8 °F 50.0 °F 94% 29.95 in 0.7 mi NNE 9.2 mph - N/A Rain Light Rain
7:00 AM 51 °F 51 °F 98% 29.97 in 1 mi NNE 6.9 mph - - Rain Light Rain
7:20 AM 51.8 °F 51.8 °F 100% 29.92 in 0.7 mi NE 6.9 mph - N/A Rain Light Rain
7:50 AM 51.8 °F 51.8 °F 100% 29.95 in 0.7 mi Variable 3.5 mph - N/A Rain Light Rain
8:20 AM 51.8 °F 51.8 °F 100% 29.95 in 1.2 mi North 4.6 mph - N/A Rain Light Rain
8:50 AM 53.6 °F 51.8 °F 94% 29.95 in 1.6 mi NNE 6.9 mph - N/A   Mostly Cloudy
9:20 AM 53.6 °F 51.8 °F 94% 29.95 in 1.6 mi North 5.8 mph - N/A   Mostly Cloudy
9:50 AM 53.6 °F 53.6 °F 100% 29.95 in 1.9 mi Variable 3.5 mph - N/A   Mostly Cloudy
10:00 AM 53 °F 53 °F 99% 29.95 in 2 mi North 3.5 mph - -   Mist
10:20 AM 53.6 °F 53.6 °F 100% 29.95 in 1.9 mi NNE 4.6 mph - N/A   Mostly Cloudy
10:50 AM 55.4 °F 53.6 °F 94% 29.92 in 2.5 mi Variable 3.5 mph - N/A   Mostly Cloudy
11:20 AM 55.4 °F 55.4 °F 100% 29.92 in 4.3 mi Variable 1.2 mph - N/A   Mostly Cloudy
11:50 AM 55.4 °F 55.4 °F 100% 29.92 in 5.0 mi Variable 1.2 mph - N/A   Mostly Cloudy
12:20 PM 55.4 °F 55.4 °F 100% 29.92 in 3.7 mi Variable 1.2 mph - N/A   Mostly Cloudy
12:50 PM 55.4 °F 53.6 °F 94% 29.92 in 3.1 mi Variable 1.2 mph - N/A   Light Drizzle
1:00 PM 55 °F 54 °F 95% 29.92 in 3 mi ENE 1.2 mph - - Rain Drizzle
1:20 PM 55.4 °F 53.6 °F 94% 29.89 in 3.7 mi ENE 4.6 mph - N/A   Mostly Cloudy
1:50 PM 55.4 °F 53.6 °F 94% 29.86 in 3.7 mi Variable 3.5 mph - N/A   Mostly Cloudy
2:20 PM 55.4 °F 53.6 °F 94% 29.86 in 3.7 mi Variable 3.5 mph - N/A   Mostly Cloudy
2:50 PM 55.4 °F 53.6 °F 94% 29.83 in 3.7 mi NE 4.6 mph - N/A   Mostly Cloudy
3:20 PM 55.4 °F 55.4 °F 100% 29.83 in 2.5 mi Calm Calm - N/A Rain Light Rain
3:50 PM 55.4 °F 53.6 °F 94% 29.83 in 2.5 mi Calm Calm - N/A Rain Light Rain
4:00 PM 56 °F 54 °F 93% 29.85 in 2 mi Calm Calm - - Rain Light Rain
4:20 PM 55.4 °F 55.4 °F 100% 29.83 in 5.0 mi Variable 2.3 mph - N/A   Mostly Cloudy
4:50 PM 55.4 °F 53.6 °F 94% 29.83 in 5.0 mi Variable 2.3 mph - N/A Rain Light Rain
5:20 PM 55.4 °F 51.8 °F 88% 29.83 in 5.0 mi South 5.8 mph - N/A   Mostly Cloudy
5:50 PM 55.4 °F 51.8 °F 88% 29.80 in 5.0 mi SSW 5.8 mph - N/A   Mostly Cloudy
6:20 PM 53.6 °F 51.8 °F 94% 29.80 in 3.1 mi SSW 5.8 mph - N/A   Mostly Cloudy
6:50 PM 53.6 °F 51.8 °F 94% 29.80 in 2.5 mi Variable 2.3 mph - N/A   Mostly Cloudy
7:00 PM 53 °F 52 °F 95% 29.82 in 2 mi WSW 3.5 mph - -   Mist
7:20 PM 53.6 °F 51.8 °F 94% 29.80 in 3.1 mi Variable 2.3 mph - N/A   Mostly Cloudy
7:50 PM 51.8 °F 50.0 °F 94% 29.80 in 2.5 mi Variable 3.5 mph - N/A   Scattered Clouds
8:20 PM 51.8 °F 51.8 °F 100% 29.83 in 2.5 mi SW 4.6 mph - N/A   Mostly Cloudy
8:50 PM 51.8 °F 51.8 °F 100% 29.83 in 2.2 mi SSW 8.1 mph - N/A   Mostly Cloudy
9:20 PM 51.8 °F 50.0 °F 94% 29.83 in 2.5 mi SW 6.9 mph - N/A   Mostly Cloudy
9:50 PM 51.8 °F 50.0 °F 94% 29.86 in 2.5 mi SW 6.9 mph - N/A   Mostly Cloudy
10:00 PM 51 °F 50 °F 93% 29.86 in 2 mi SW 6.9 mph - -   Mist
10:20 PM 51.8 °F 50.0 °F 94% 29.86 in 2.5 mi SW 6.9 mph - N/A   Mostly Cloudy
10:50 PM 51.8 °F 50.0 °F 94% 29.86 in 2.5 mi SW 6.9 mph - N/A   Mostly Cloudy
11:20 PM 50.0 °F 50.0 °F 100% 29.86 in 3.1 mi Variable 3.5 mph - N/A Rain Light Rain
11:50 PM 50.0 °F 50.0 °F 100% 29.89 in 3.7 mi Variable 1.2 mph - N/A   Light Drizzle